Time,TemperatureF,DewpointF,PressureIn,WindDirection,WindDirectionDegrees,WindSpeedMPH,WindSpeedGustMPH,Humidity,HourlyPrecipIn,Conditions,Clouds,dailyrainin,SoftwareType,DateUTC
2013-03-16 00:02:00,2.0,-2.0,30.19,NNW,330,4.0,6.0,82,0.00,,,0.00,,2013-03-16 05:02:00,
2013-03-16 00:12:00,2.0,-2.0,30.19,NNW,330,4.0,6.0,82,0.00,,,0.00,,2013-03-16 05:12:00,
2013-03-16 00:22:00,2.0,-2.0,30.18,North,350,3.0,5.0,83,0.00,,,0.00,,2013-03-16 05:22:00,
2013-03-16 00:32:00,2.0,-2.0,30.19,NW,323,4.0,7.0,83,0.00,,,0.00,,2013-03-16 05:32:00,
2013-03-16 00:42:00,2.0,-2.0,30.19,NW,323,4.0,7.0,83,0.00,,,0.00,,2013-03-16 05:42:00,
2013-03-16 00:53:00,2.0,-2.0,30.18,North,355,5.0,7.0,83,0.00,,,0.00,,2013-03-16 05:53:00,
2013-03-16 01:02:00,2.0,-2.0,30.19,NW,317,3.0,9.0,83,0.00,,,0.00,,2013-03-16 06:02:00,
2013-03-16 01:12:00,2.0,-2.0,30.19,NW,317,3.0,9.0,83,0.00,,,0.00,,2013-03-16 06:12:00,
2013-03-16 01:22:00,2.0,-2.0,30.19,NW,325,4.0,8.0,83,0.00,,,0.00,,2013-03-16 06:22:00,
2013-03-16 01:32:00,2.0,-2.0,30.20,NNW,346,3.0,8.0,83,0.00,,,0.00,,2013-03-16 06:32:00,
2013-03-16 01:42:00,2.0,-2.0,30.20,NNW,346,3.0,8.0,83,0.00,,,0.00,,2013-03-16 06:42:00,
2013-03-16 01:52:00,2.0,-2.0,30.19,NNW,333,2.0,8.0,83,0.00,,,0.00,,2013-03-16 06:52:00,
2013-03-16 02:02:00,2.0,-2.0,30.19,NW,317,5.0,8.0,83,0.00,,,0.00,,2013-03-16 07:02:00,
2013-03-16 02:12:00,2.0,-2.0,30.19,NW,317,5.0,8.0,83,0.00,,,0.00,,2013-03-16 07:12:00,
2013-03-16 02:22:00,2.0,-2.0,30.19,NNW,340,3.0,7.0,83,0.00,,,0.00,,2013-03-16 07:22:00,
2013-03-16 02:32:00,2.0,-2.0,30.19,NW,321,5.0,8.0,83,0.00,,,0.00,,2013-03-16 07:32:00,
2013-03-16 02:42:00,2.0,-2.0,30.19,NW,321,5.0,8.0,83,0.00,,,0.00,,2013-03-16 07:42:00,
2013-03-16 02:52:00,2.0,-2.0,30.19,WNW,290,4.0,9.0,82,0.00,,,0.00,,2013-03-16 07:52:00,
2013-03-16 03:02:00,2.0,-2.0,30.19,NNW,336,3.0,7.0,82,0.00,,,0.00,,2013-03-16 08:02:00,
2013-03-16 03:12:00,2.0,-2.0,30.19,NNW,336,3.0,7.0,82,0.00,,,0.00,,2013-03-16 08:12:00,
2013-03-16 03:23:00,2.0,-2.0,30.19,North,355,2.0,6.0,82,0.00,,,0.00,,2013-03-16 08:23:00,
2013-03-16 03:32:00,2.0,-2.0,30.20,WNW,298,4.0,6.0,82,0.00,,,0.00,,2013-03-16 08:32:00,
2013-03-16 03:42:00,2.0,-2.0,30.20,WNW,298,4.0,6.0,82,0.00,,,0.00,,2013-03-16 08:42:00,
2013-03-16 03:52:00,2.0,-2.0,30.20,NW,310,5.0,8.0,82,0.00,,,0.00,,2013-03-16 08:52:00,
2013-03-16 04:01:00,2.0,-2.0,30.20,WNW,300,4.0,5.0,83,0.00,,,0.00,,2013-03-16 09:01:00,
2013-03-16 04:12:00,2.0,-2.0,30.20,WNW,300,4.0,5.0,83,0.00,,,0.00,,2013-03-16 09:12:00,
2013-03-16 04:22:00,3.0,-1.0,30.20,WNW,299,3.0,6.0,83,0.00,,,0.00,,2013-03-16 09:22:00,
2013-03-16 04:32:00,2.0,-2.0,30.19,NW,321,4.0,6.0,82,0.00,,,0.00,,2013-03-16 09:32:00,
2013-03-16 04:42:00,2.0,-2.0,30.19,NW,321,4.0,6.0,82,0.00,,,0.00,,2013-03-16 09:42:00,
2013-03-16 04:53:00,3.0,-1.0,30.19,NW,307,5.0,6.0,83,0.00,,,0.00,,2013-03-16 09:53:00,
2013-03-16 05:03:00,3.0,-1.0,30.19,WNW,288,4.0,7.0,83,0.00,,,0.00,,2013-03-16 10:03:00,
2013-03-16 05:12:00,3.0,-1.0,30.19,WNW,288,4.0,7.0,83,0.00,,,0.00,,2013-03-16 10:12:00,
2013-03-16 05:22:00,2.0,-2.0,30.19,WNW,290,3.0,9.0,83,0.00,,,0.00,,2013-03-16 10:22:00,
2013-03-16 05:32:00,2.0,-2.0,30.19,WNW,299,4.0,6.0,82,0.00,,,0.00,,2013-03-16 10:32:00,
2013-03-16 05:42:00,2.0,-2.0,30.19,WNW,299,4.0,6.0,82,0.00,,,0.00,,2013-03-16 10:42:00,
2013-03-16 05:53:00,2.0,-2.0,30.19,WSW,257,5.0,7.0,82,0.00,,,0.00,,2013-03-16 10:53:00,
2013-03-16 06:03:00,1.0,-3.0,30.19,West,269,4.0,8.0,82,0.00,,,0.00,,2013-03-16 11:03:00,
2013-03-16 06:12:00,1.0,-3.0,30.19,West,269,4.0,8.0,82,0.00,,,0.00,,2013-03-16 11:12:00,
2013-03-16 06:22:00,1.0,-3.0,30.18,West,269,4.0,6.0,83,0.00,,,0.00,,2013-03-16 11:22:00,
2013-03-16 06:32:00,1.0,-3.0,30.18,West,269,3.0,7.0,83,0.00,,,0.00,,2013-03-16 11:32:00,
2013-03-16 06:42:00,1.0,-3.0,30.18,West,269,3.0,7.0,83,0.00,,,0.00,,2013-03-16 11:42:00,
2013-03-16 06:52:00,1.0,-3.0,30.18,West,263,3.0,6.0,84,0.00,,,0.00,,2013-03-16 11:52:00,
2013-03-16 07:02:00,1.0,-3.0,30.17,WNW,284,3.0,7.0,84,0.00,,,0.00,,2013-03-16 12:02:00,
2013-03-16 07:12:00,1.0,-3.0,30.17,WNW,284,3.0,7.0,84,0.00,,,0.00,,2013-03-16 12:12:00,
2013-03-16 07:22:00,0.0,-4.0,30.18,West,275,4.0,7.0,84,0.00,,,0.00,,2013-03-16 12:22:00,
2013-03-16 07:32:00,0.0,-4.0,30.18,West,271,3.0,8.0,84,0.00,,,0.00,,2013-03-16 12:32:00,
2013-03-16 07:42:00,0.0,-4.0,30.18,West,271,3.0,8.0,84,0.00,,,0.00,,2013-03-16 12:42:00,
2013-03-16 07:52:00,0.0,-4.0,30.18,West,269,4.0,6.0,84,0.00,,,0.00,,2013-03-16 12:52:00,
2013-03-16 08:02:00,-1.0,-5.0,30.18,West,270,3.0,6.0,84,0.00,,,0.00,,2013-03-16 13:02:00,
2013-03-16 08:12:00,-1.0,-5.0,30.18,West,270,3.0,6.0,84,0.00,,,0.00,,2013-03-16 13:12:00,
2013-03-16 08:22:00,-1.0,-5.0,30.17,West,269,3.0,7.0,84,0.00,,,0.00,,2013-03-16 13:22:00,
2013-03-16 08:32:00,0.0,-3.0,30.18,WNW,291,3.0,5.0,85,0.00,,,0.00,,2013-03-16 13:32:00,
2013-03-16 08:42:00,0.0,-3.0,30.18,WNW,291,3.0,5.0,85,0.00,,,0.00,,2013-03-16 13:42:00,
2013-03-16 08:53:00,0.0,-3.0,30.18,West,275,4.0,7.0,85,0.00,,,0.00,,2013-03-16 13:53:00,
2013-03-16 09:02:00,0.0,-3.0,30.18,West,269,3.0,5.0,85,0.00,,,0.00,,2013-03-16 14:02:00,
2013-03-16 09:12:00,0.0,-3.0,30.18,West,269,3.0,5.0,85,0.00,,,0.00,,2013-03-16 14:12:00,
2013-03-16 09:22:00,1.0,-3.0,30.18,WSW,248,3.0,6.0,84,0.00,,,0.00,,2013-03-16 14:22:00,
2013-03-16 09:32:00,3.0,-1.0,30.18,WSW,257,6.0,10.0,83,0.00,,,0.00,,2013-03-16 14:32:00,
2013-03-16 09:42:00,3.0,-1.0,30.18,WSW,257,6.0,10.0,83,0.00,,,0.00,,2013-03-16 14:42:00,
2013-03-16 09:52:00,6.0,1.0,30.17,West,280,4.0,8.0,81,0.00,,,0.00,,2013-03-16 14:52:00,
2013-03-16 10:02:00,8.0,2.0,30.17,WSW,249,4.0,9.0,76,0.00,,,0.00,,2013-03-16 15:02:00,
2013-03-16 10:12:00,8.0,2.0,30.17,WSW,249,4.0,9.0,76,0.00,,,0.00,,2013-03-16 15:12:00,
2013-03-16 10:22:00,10.0,3.0,30.17,WNW,297,6.0,8.0,72,0.00,,,0.00,,2013-03-16 15:22:00,
2013-03-16 10:33:00,11.0,3.0,30.17,WNW,299,5.0,9.0,70,0.00,,,0.00,,2013-03-16 15:33:00,
2013-03-16 10:43:00,11.0,3.0,30.17,WNW,299,5.0,9.0,70,0.00,,,0.00,,2013-03-16 15:43:00,
2013-03-16 10:53:00,12.0,4.0,30.17,West,275,7.0,10.0,68,0.00,,,0.00,,2013-03-16 15:53:00,
2013-03-16 11:03:00,12.0,4.0,30.17,West,273,5.0,10.0,68,0.00,,,0.00,,2013-03-16 16:03:00,
2013-03-16 11:12:00,12.0,4.0,30.17,West,273,5.0,10.0,68,0.00,,,0.00,,2013-03-16 16:12:00,
2013-03-16 11:22:00,14.0,4.0,30.18,WNW,290,6.0,10.0,65,0.00,,,0.00,,2013-03-16 16:22:00,
2013-03-16 11:33:00,14.0,4.0,30.18,West,280,6.0,10.0,64,0.00,,,0.00,,2013-03-16 16:33:00,
2013-03-16 11:42:00,14.0,4.0,30.18,West,280,6.0,10.0,64,0.00,,,0.00,,2013-03-16 16:42:00,
2013-03-16 11:53:00,15.0,5.0,30.18,WNW,296,6.0,10.0,63,0.00,,,0.00,,2013-03-16 16:53:00,
2013-03-16 12:03:00,17.0,6.0,30.19,West,276,6.0,14.0,62,0.00,,,0.00,,2013-03-16 17:03:00,
2013-03-16 12:12:00,17.0,6.0,30.19,West,276,6.0,14.0,62,0.00,,,0.00,,2013-03-16 17:12:00,
2013-03-16 12:23:00,17.0,6.0,30.19,West,281,6.0,12.0,62,0.00,,,0.00,,2013-03-16 17:23:00,
2013-03-16 12:32:00,17.0,6.0,30.19,NNW,342,4.0,14.0,61,0.00,,,0.00,,2013-03-16 17:32:00,
2013-03-16 12:42:00,17.0,6.0,30.19,NNW,342,4.0,14.0,61,0.00,,,0.00,,2013-03-16 17:42:00,
2013-03-16 12:53:00,18.0,6.0,30.20,NW,308,7.0,12.0,59,0.00,,,0.00,,2013-03-16 17:53:00,
2013-03-16 13:02:00,18.0,6.0,30.20,WSW,249,8.0,15.0,58,0.00,,,0.00,,2013-03-16 18:02:00,
2013-03-16 13:13:00,18.0,6.0,30.20,WSW,249,8.0,15.0,58,0.00,,,0.00,,2013-03-16 18:13:00,
2013-03-16 13:22:00,18.0,6.0,30.21,WNW,285,9.0,15.0,58,0.00,,,0.00,,2013-03-16 18:22:00,
2013-03-16 13:32:00,18.0,6.0,30.21,WNW,293,8.0,14.0,58,0.00,,,0.00,,2013-03-16 18:32:00,
2013-03-16 13:42:00,18.0,6.0,30.21,WNW,293,8.0,14.0,58,0.00,,,0.00,,2013-03-16 18:42:00,
2013-03-16 13:53:00,19.0,6.0,30.22,NNW,330,9.0,13.0,57,0.01,,,0.01,,2013-03-16 18:53:00,
2013-03-16 14:02:00,19.0,6.0,30.22,WNW,292,7.0,16.0,57,0.01,,,0.01,,2013-03-16 19:02:00,
2013-03-16 14:12:00,19.0,6.0,30.22,WNW,292,7.0,16.0,57,0.01,,,0.01,,2013-03-16 19:12:00,
2013-03-16 14:22:00,18.0,6.0,30.22,West,273,6.0,14.0,60,0.01,,,0.01,,2013-03-16 19:22:00,
2013-03-16 14:32:00,18.0,6.0,30.22,West,273,6.0,14.0,60,0.01,,,0.01,,2013-03-16 19:32:00,
2013-03-16 14:42:00,18.0,6.0,30.22,West,273,6.0,14.0,60,0.01,,,0.01,,2013-03-16 19:42:00,
2013-03-16 14:52:00,18.0,6.0,30.22,West,273,6.0,14.0,60,0.01,,,0.01,,2013-03-16 19:52:00,